loading
|
Showing default

LIZZIESAT, 59132

Orbit data source: Space-Track

LIZZIESAT, 59132 is a payload satellite owned by Sidus Space (US) in SSO that was launched on Mon, 04 Mar 2024 UTC via an FALCON 9 launch vehicle from the Air Force Western Test Range (AFWTR). Payloads include a variety of satellites, spacecraft, and rockets equipped with specific instruments for various scientific and technological missions. These include communications satellites like Starlink; space stations such as the ISS; scientific satellites like the Hubble; Earth observation satellites from companies like Planet Labs, Umbra, and HawkEye 360; GPS; miniature CubeSats for education and research; and military/defense satellites.

Loading next visibility...
Loading greatness...
LIZZIESAT details
Identifier
59132, 2024-043AL
Orbit
SSO
Last TLE update8 hours ago
Origin
Flag of USSidus Space (US)
ManufacturerSidus Space
Mission statusOperational
MissionCommercial Technology
Bus & MotorLIZZIESAT, Unknown motor
Mass~100 kg wet, ~100 kg dry
Launch date (UTC)
2024-03-04 (7 months ago)
Launch vehicle
FALCON 9
Launch site
Air Force Western Test Range (AFWTR)
Object type
Payload
Rocket body
Debris
Radar Cross SectionMedium (>0.1 m² and <1 m²)

Expand to show TLE details & history

TLE from 8 hours ago
0 LIZZIESAT
1 59132U 24043AL  24261.60779872  .00017890  00000-0  84742-3 0  9997
2 59132  97.4865  24.4296 0011767 326.2909  33.7576 15.19323250 29835
Epoch: 2024-09-17T14:35Z
Definitive object data (Epoch: 2024-09-17T14:35:13.809Z)
Latitude-0.00002°
Longitude168.60204°
Altitude504.237 km
Speed7.616 km/s
True Right ascension01h 37m 43s
True Declination0° 00' 00"
Sunlit
Object was in full shadow at TLE epoch
Predictive object data (real-time)
Latitude81.84201°
Longitude103.20741°
Altitude525.588 km
Speed7.605 km/s
Apparent Right ascension02h 55m 05s
Apparent Declination29° 16' 31"
Sunlit
Object is in daylight
Predictive observer data (real-time)
Local Sidereal Time15:41:10
Azimuth10.684° NNE
Elevation-19.984°
Doppler factor1
Orbital elements
Apogee512.954 km
Perigee496.756 km
Semi-major axis6,882.992 km
Eccentricity0.0011767
Inclination97.4865°
RAAN24.4296°
Arg. of periapsis326.2909°
True anomaly33.83262°
Mean anomaly33.7576°
Eccentric anomaly33.7951°
Mean motion3.80082 °/min
BSTAR0.00084742
Period94.72 mins
No data available

LIZZIESAT Visibility forecast

Observer location: 39.9160978°, -105.1181434

LIZZIESAT is not visible in the next 10 days
Span
Click to sort rows by Start time (UTC) header in descending order
Start Az.
Max El. time (UTC)
Max El. Az.
Max El.
End time (UTC)
End Az.